�������l�o���
Date,Time,MP-1(��Sv/h),MP-2(��Sv/h),MP-3(��Sv/h),MP-4(��Sv/h),MP-5(��Sv/h),MP-6(��Sv/h),MP-7(��Sv/h),MP-8(��Sv/h),����,����(m/s),���J
2020/06/08,00:00,0.711,1.033,0.644,1.244,0.903,0.401,0.697,0.653,�k�k��,1.9,��
2020/06/08,00:10,0.712,1.031,0.643,1.245,0.903,0.402,0.697,0.652,�k�k��,1.7,��
2020/06/08,00:20,0.715,1.032,0.644,1.245,0.902,0.402,0.697,0.651,�k��,1.5,��
2020/06/08,00:30,0.713,1.031,0.643,1.245,0.899,0.402,0.697,0.652,�k�k��,1.5,��
2020/06/08,00:40,0.712,1.032,0.644,1.245,0.902,0.402,0.698,0.653,�k��,1.7,��
2020/06/08,00:50,0.713,1.032,0.646,1.244,0.901,0.402,0.695,0.654,�k�k��,1.5,��
2020/06/08,01:00,0.713,1.031,0.642,1.247,0.903,0.401,0.697,0.652,�k�k��,1.1,��
2020/06/08,01:10,0.715,1.031,0.645,1.246,0.903,0.402,0.696,0.651,�k�k��,1.4,��
2020/06/08,01:20,0.713,1.033,0.645,1.243,0.901,0.401,0.698,0.652,�k�k��,1.2,��
2020/06/08,01:30,0.712,1.032,0.643,1.245,0.902,0.401,0.698,0.652,-,CALM,��
2020/06/08,01:40,0.711,1.031,0.645,1.245,0.902,0.401,0.698,0.653,���k��,1.2,��
2020/06/08,01:50,0.713,1.032,0.644,1.245,0.899,0.401,0.696,0.652,�k,1.4,��
2020/06/08,02:00,0.714,1.032,0.644,1.246,0.902,0.402,0.698,0.652,�k�k��,1.1,��
2020/06/08,02:10,0.713,1.033,0.645,1.247,0.902,0.401,0.699,0.653,�k��,0.9,��
2020/06/08,02:20,0.713,1.031,0.645,1.244,0.901,0.402,0.694,0.651,�k�k��,0.9,��
2020/06/08,02:30,0.714,1.029,0.645,1.244,0.902,0.402,0.697,0.653,���k��,0.6,��
2020/06/08,02:40,0.713,1.030,0.643,1.245,0.902,0.401,0.697,0.652,��,0.6,��
2020/06/08,02:50,0.713,1.032,0.644,1.246,0.901,0.402,0.696,0.654,�k,1.4,��
2020/06/08,03:00,0.714,1.029,0.645,1.245,0.902,0.402,0.696,0.653,�k�k��,1.2,��
2020/06/08,03:10,0.712,1.031,0.645,1.246,0.900,0.402,0.698,0.654,�k�k��,0.8,��
2020/06/08,03:20,0.713,1.032,0.644,1.246,0.901,0.401,0.696,0.653,�k,1.1,��
2020/06/08,03:30,0.712,1.030,0.643,1.244,0.901,0.402,0.697,0.653,�k�k��,0.9,��
2020/06/08,03:40,0.715,1.030,0.645,1.246,0.902,0.401,0.697,0.652,�k�k��,1.1,��
2020/06/08,03:50,0.711,1.030,0.644,1.245,0.902,0.401,0.697,0.652,�k,0.6,��
2020/06/08,04:00,0.711,1.030,0.645,1.245,0.901,0.401,0.698,0.652,�k,0.8,��
2020/06/08,04:10,0.712,1.030,0.645,1.246,0.902,0.401,0.698,0.655,-,CALM,��
2020/06/08,04:20,0.713,1.031,0.646,1.244,0.900,0.401,0.696,0.653,��,0.6,��
2020/06/08,04:30,0.712,1.032,0.644,1.244,0.902,0.400,0.697,0.653,��,1.5,��
2020/06/08,04:40,0.712,1.029,0.645,1.242,0.902,0.403,0.696,0.653,���쐼,1.7,��
2020/06/08,04:50,0.711,1.034,0.646,1.244,0.901,0.402,0.698,0.651,���쐼,1.5,��
2020/06/08,05:00,0.714,1.031,0.643,1.246,0.901,0.401,0.697,0.653,�쐼,1.4,��
2020/06/08,05:10,0.714,1.032,0.645,1.245,0.902,0.402,0.696,0.653,��,1.5,��
2020/06/08,05:20,0.714,1.030,0.643,1.246,0.900,0.402,0.697,0.653,���k��,1.9,��
2020/06/08,05:30,0.714,1.031,0.646,1.246,0.901,0.402,0.697,0.653,���k��,0.9,��
2020/06/08,05:40,0.713,1.030,0.646,1.245,0.903,0.402,0.696,0.653,-,CALM,��
2020/06/08,05:50,0.714,1.030,0.645,1.245,0.904,0.403,0.699,0.653,�쐼,0.6,��
2020/06/08,06:00,0.712,1.031,0.644,1.246,0.902,0.402,0.697,0.652,���쐼,0.9,��
2020/06/08,06:10,0.713,1.030,0.643,1.246,0.902,0.402,0.699,0.653,��,1.1,��
2020/06/08,06:20,0.711,1.027,0.643,1.247,0.901,0.402,0.697,0.654,���쐼,1.2,��
2020/06/08,06:30,0.714,1.029,0.647,1.245,0.900,0.404,0.698,0.653,��쐼,0.8,��
2020/06/08,06:40,0.713,1.029,0.644,1.243,0.901,0.402,0.698,0.653,�쐼,0.6,��
2020/06/08,06:50,0.712,1.030,0.645,1.247,0.902,0.403,0.697,0.652,���k��,1.7,��
2020/06/08,07:00,0.712,1.027,0.645,1.245,0.904,0.402,0.697,0.654,���k��,1.2,��
2020/06/08,07:10,0.712,1.026,0.644,1.244,0.901,0.401,0.697,0.654,��,1.4,��
2020/06/08,07:20,0.712,1.032,0.644,1.245,0.900,0.402,0.697,0.651,���쓌,2.0,��
2020/06/08,07:30,0.713,1.028,0.645,1.247,0.901,0.401,0.696,0.653,��쓌,1.5,��
2020/06/08,07:40,0.711,1.028,0.645,1.247,0.901,0.401,0.695,0.653,��,2.0,��
2020/06/08,07:50,0.711,1.030,0.643,1.247,0.901,0.401,0.696,0.651,�쓌,2.3,��
2020/06/08,08:00,0.711,1.030,0.642,1.247,0.900,0.400,0.694,0.650,���쓌,2.6,��
2020/06/08,08:10,0.712,1.032,0.643,1.246,0.899,0.400,0.696,0.649,���쓌,2.0,��
2020/06/08,08:20,0.713,1.028,0.642,1.246,0.901,0.400,0.694,0.650,�쓌,3.0,��
2020/06/08,08:30,0.711,1.027,0.643,1.248,0.899,0.399,0.694,0.650,���쓌,3.4,��
2020/06/08,08:40,0.711,1.024,0.641,1.245,0.900,0.400,0.697,0.651,���쓌,2.9,��
2020/06/08,08:50,0.713,1.024,0.642,1.246,0.899,0.400,0.696,0.651,���쓌,4.1,��
2020/06/08,09:00,0.711,1.024,0.641,1.244,0.899,0.400,0.697,0.650,�쓌,4.3,��
2020/06/08,09:10,0.712,1.024,0.642,1.247,0.899,0.402,0.696,0.650,���쓌,3.9,��
2020/06/08,09:20,0.713,1.025,0.642,1.246,0.898,0.401,0.696,0.650,�쓌,4.5,��
2020/06/08,09:30,0.711,1.022,0.642,1.248,0.897,0.400,0.695,0.650,�쓌,3.5,��
2020/06/08,09:40,0.712,1.020,0.643,1.246,0.898,0.400,0.696,0.650,���쓌,3.4,��
2020/06/08,09:50,0.714,1.022,0.642,1.247,0.899,0.401,0.695,0.650,�쓌,4.4,��
2020/06/08,10:00,0.712,1.025,0.643,1.246,0.900,0.400,0.697,0.650,���쓌,3.6,��
2020/06/08,10:10,0.711,1.024,0.644,1.244,0.900,0.399,0.697,0.650,���쓌,4.2,��
2020/06/08,10:20,0.713,1.024,0.644,1.246,0.901,0.401,0.698,0.651,�쓌,3.7,��
2020/06/08,10:30,0.714,1.024,0.644,1.246,0.899,0.401,0.696,0.652,�쓌,4.7,��
2020/06/08,10:40,0.712,1.024,0.643,1.246,0.898,0.402,0.696,0.652,�쓌,4.7,��
2020/06/08,10:50,0.712,1.025,0.643,1.247,0.901,0.400,0.697,0.650,���쓌,4.1,��
2020/06/08,11:00,0.714,1.025,0.642,1.246,0.899,0.400,0.697,0.649,�쓌,4.7,��
2020/06/08,11:10,0.713,1.022,0.644,1.245,0.901,0.400,0.695,0.651,�쓌,3.9,��
2020/06/08,11:20,0.713,1.025,0.645,1.246,0.902,0.400,0.698,0.651,�쓌,4.6,��
2020/06/08,11:30,0.713,1.027,0.644,1.245,0.902,0.401,0.697,0.650,���쓌,4.1,��
2020/06/08,11:40,0.714,1.031,0.643,1.242,0.902,0.400,0.698,0.651,���쓌,4.1,��
2020/06/08,11:50,0.712,1.028,0.644,1.247,0.900,0.402,0.698,0.649,�쓌,4.4,��
2020/06/08,12:00,0.714,1.030,0.645,1.243,0.901,0.400,0.697,0.650,���쓌,4.5,��
2020/06/08,12:10,0.714,1.032,0.644,1.244,0.899,0.401,0.697,0.653,�쓌,3.6,��
2020/06/08,12:20,0.715,1.031,0.645,1.244,0.903,0.401,0.697,0.650,���쓌,3.8,��
2020/06/08,12:30,0.714,1.030,0.643,1.248,0.903,0.401,0.698,0.652,���쓌,4.7,��
2020/06/08,12:40,0.714,1.029,0.644,1.244,0.903,0.400,0.697,0.652,��쓌,3.6,��
2020/06/08,12:50,0.715,1.031,0.645,1.245,0.902,0.402,0.698,0.651,��쓌,4.2,��
2020/06/08,13:00,0.714,1.029,0.646,1.245,0.902,0.401,0.698,0.651,�쓌,5.0,��
2020/06/08,13:10,0.716,1.029,0.643,1.244,0.902,0.402,0.697,0.651,��쓌,4.2,��
2020/06/08,13:20,0.714,1.029,0.645,1.247,0.904,0.400,0.696,0.652,��쓌,4.8,��
2020/06/08,13:30,0.715,1.029,0.645,1.245,0.903,0.402,0.698,0.652,��쓌,5.6,��
2020/06/08,13:40,0.713,1.029,0.645,1.245,0.903,0.400,0.697,0.652,��쓌,5.6,��
2020/06/08,13:50,0.714,1.027,0.643,1.246,0.902,0.401,0.698,0.653,��쓌,6.6,��
2020/06/08,14:00,0.714,1.028,0.643,1.246,0.904,0.402,0.698,0.653,��쓌,6.5,��
2020/06/08,14:10,0.713,1.028,0.646,1.248,0.903,0.401,0.699,0.651,��쓌,6.5,��
2020/06/08,14:20,0.714,1.028,0.644,1.246,0.903,0.403,0.697,0.651,-,CALM,��
2020/06/08,14:30,0.716,1.029,0.644,1.248,0.904,0.403,0.696,0.652,��쓌,8.2,��
2020/06/08,14:40,0.716,1.029,0.649,1.246,0.905,0.401,0.699,0.651,��쓌,7.8,��
2020/06/08,14:50,0.715,1.028,0.653,1.245,0.903,0.403,0.697,0.651,��쓌,8.8,��
2020/06/08,15:00,0.715,1.032,0.654,1.247,0.903,0.401,0.698,0.651,��쓌,8.6,��
2020/06/08,15:10,0.714,1.029,0.651,1.248,0.904,0.401,0.700,0.652,��쓌,9.2,��
2020/06/08,15:20,0.715,1.032,0.651,1.247,0.904,0.403,0.697,0.651,��쓌,9.2,��
2020/06/08,15:30,0.717,1.032,0.652,1.249,0.904,0.401,0.697,0.652,��쓌,9.1,��
2020/06/08,15:40,0.715,1.033,0.652,1.247,0.905,0.404,0.697,0.651,��쓌,8.4,��
2020/06/08,15:50,0.716,1.033,0.653,1.250,0.903,0.402,0.697,0.652,��쓌,8.0,��
2020/06/08,16:00,0.716,1.033,0.653,1.246,0.904,0.403,0.697,0.650,��쓌,7.3,��
2020/06/08,16:10,0.715,1.032,0.653,1.246,0.904,0.403,0.697,0.651,��쓌,7.1,��
2020/06/08,16:20,0.715,1.034,0.651,1.246,0.903,0.402,0.697,0.650,��쓌,8.4,��
2020/06/08,16:30,0.716,1.032,0.651,1.249,0.902,0.403,0.696,0.651,��쓌,8.3,��
2020/06/08,16:40,0.714,1.033,0.650,1.249,0.904,0.403,0.698,0.650,��쓌,7.2,��
2020/06/08,16:50,0.715,1.033,0.652,1.250,0.905,0.404,0.697,0.650,��쓌,8.4,��
2020/06/08,17:00,0.715,1.032,0.652,1.246,0.903,0.403,0.697,0.650,��쓌,7.8,��
2020/06/08,17:10,0.714,1.035,0.651,1.250,0.902,0.404,0.697,0.651,��,8.5,��
2020/06/08,17:20,0.714,1.033,0.650,1.248,0.904,0.403,0.697,0.650,��쓌,7.2,��
2020/06/08,17:30,0.714,1.034,0.650,1.250,0.903,0.402,0.696,0.652,��쓌,8.1,��
2020/06/08,17:40,0.717,1.033,0.652,1.248,0.904,0.403,0.697,0.652,��쓌,6.1,��
2020/06/08,17:50,0.713,1.035,0.652,1.247,0.903,0.404,0.697,0.652,��쓌,8.6,��
2020/06/08,18:00,0.713,1.034,0.652,1.250,0.903,0.403,0.696,0.653,��,7.8,��
2020/06/08,18:10,0.713,1.033,0.652,1.247,0.900,0.403,0.696,0.655,��쓌,9.0,��
2020/06/08,18:20,0.711,1.034,0.651,1.250,0.905,0.403,0.698,0.655,��,9.1,��
2020/06/08,18:30,0.715,1.034,0.652,1.249,0.902,0.403,0.698,0.652,��쓌,7.4,��
2020/06/08,18:40,0.714,1.032,0.651,1.252,0.905,0.403,0.698,0.654,��,5.9,��
2020/06/08,18:50,0.716,1.033,0.653,1.251,0.902,0.403,0.698,0.653,��쓌,6.8,��
2020/06/08,19:00,0.712,1.032,0.651,1.251,0.902,0.404,0.699,0.653,��쓌,6.2,��
2020/06/08,19:10,0.715,1.033,0.653,1.254,0.903,0.404,0.698,0.654,��,5.6,��
2020/06/08,19:20,0.714,1.035,0.654,1.252,0.902,0.405,0.698,0.654,��,5.2,��
2020/06/08,19:30,0.713,1.036,0.654,1.252,0.903,0.405,0.698,0.654,��,6.5,��
2020/06/08,19:40,0.716,1.037,0.653,1.252,0.905,0.405,0.699,0.654,��,6.8,��
2020/06/08,19:50,0.714,1.037,0.654,1.251,0.899,0.404,0.699,0.654,��,7.1,��
2020/06/08,20:00,0.716,1.038,0.654,1.253,0.903,0.404,0.698,0.654,��,7.4,��
2020/06/08,20:10,0.716,1.036,0.655,1.253,0.905,0.406,0.698,0.653,��,5.9,��
2020/06/08,20:20,0.714,1.035,0.656,1.253,0.905,0.405,0.700,0.655,��,5.4,��
2020/06/08,20:30,0.716,1.037,0.654,1.252,0.905,0.404,0.700,0.652,��,5.6,��
2020/06/08,20:40,0.715,1.039,0.656,1.254,0.905,0.406,0.699,0.653,��,5.2,��
2020/06/08,20:50,0.716,1.037,0.655,1.251,0.905,0.404,0.698,0.652,��,5.1,��
2020/06/08,21:00,0.715,1.038,0.655,1.249,0.905,0.405,0.699,0.655,��쐼,6.3,��
2020/06/08,21:10,0.716,1.038,0.654,1.253,0.906,0.406,0.699,0.654,��,6.2,��
2020/06/08,21:20,0.720,1.036,0.654,1.252,0.906,0.406,0.700,0.654,��,6.0,��
2020/06/08,21:30,0.716,1.035,0.652,1.251,0.906,0.404,0.698,0.653,��,5.2,��
2020/06/08,21:40,0.716,1.037,0.655,1.251,0.906,0.406,0.698,0.652,��,5.4,��
2020/06/08,21:50,0.716,1.036,0.655,1.252,0.904,0.405,0.699,0.653,��,5.7,��
2020/06/08,22:00,0.716,1.034,0.653,1.253,0.904,0.406,0.699,0.654,��,5.4,��
2020/06/08,22:10,0.716,1.036,0.654,1.248,0.907,0.405,0.699,0.652,��,5.0,��
2020/06/08,22:20,0.717,1.036,0.654,1.249,0.904,0.405,0.699,0.653,��,4.5,��
2020/06/08,22:30,0.715,1.034,0.655,1.251,0.905,0.406,0.699,0.654,��,4.6,��
2020/06/08,22:40,0.717,1.035,0.653,1.252,0.904,0.405,0.700,0.653,��쐼,4.9,��
2020/06/08,22:50,0.715,1.035,0.655,1.251,0.906,0.405,0.698,0.653,��,4.9,��
2020/06/08,23:00,0.715,1.036,0.656,1.254,0.904,0.406,0.699,0.652,��쐼,4.8,��
2020/06/08,23:10,0.717,1.034,0.656,1.252,0.906,0.406,0.698,0.652,��쐼,4.4,��
2020/06/08,23:20,0.717,1.036,0.654,1.254,0.907,0.406,0.699,0.653,��쐼,4.0,��
2020/06/08,23:30,0.717,1.038,0.655,1.252,0.905,0.407,0.700,0.654,��쐼,4.1,��
2020/06/08,23:40,0.718,1.036,0.656,1.252,0.904,0.407,0.698,0.654,��쐼,4.6,��
2020/06/08,23:50,0.717,1.035,0.654,1.250,0.907,0.406,0.700,0.654,��,5.0,��
